Change the Weather History Date:

Wednesday, February 27, 2013

  Actual Average Record
Temperature  
Mean Temperature 34 °F 33 °F  
Max Temperature 42 °F 45 °F 74 °F (1976)
Min Temperature 25 °F 22 °F -10 °F (1890)
Degree Days  
Heating Degree Days 31 32  
Month to date heating degree days 938 975  
Since 1 July heating degree days 4593 4672  
Cooling Degree Days 0 0  
Month to date cooling degree days 0 0  
Year to date cooling degree days 0 0  
Moisture  
Dew Point 23 °F    
Average Humidity 71    
Maximum Humidity 92    
Minimum Humidity 49    
Precipitation  
Precipitation 0.00 in 0.03 in 1.92 in (1958)
Month to date precipitation 0.54 0.74  
Year to date precipitation 1.27 1.38  
Snow  
Snow 0.00 in 0.10 in - ()
Month to date snowfall 5.5 5.4  
Since 1 July snowfall 16.8 19.5  
Snow Depth 2.00 in    
Sea Level Pressure  
Sea Level Pressure 30.05 in    
Wind  
Wind Speed 18 mph (NNW)    
Max Wind Speed 32 mph    
Max Gust Speed 39 mph    
Visibility 7 miles    
Events      
T = Trace of Precipitation, MM = Missing Value Source: NWS Daily Summary

Daily Weather History Graph

Daily Weather History Graph

Search for Another Location

Airport or City:

Trip Planner

Search our weather history database for the weather conditions in past years. The results will help you decide how hot, cold, wet, or windy it might be!

Date:

Astronomy

Feb. 27, 2013 Rise Set
Actual Time 7:03 AM CST 6:16 PM CST
Civil Twilight 6:36 AM CST 6:43 PM CST
Nautical Twilight 6:04 AM CST 7:15 PM CST
Astronomical Twilight 5:32 AM CST 7:47 PM CST
Moon 8:40 PM CST (2/27) 7:38 AM CST (2/27)
Length of Visible Light 12h 07m
Length of Day
11h 12m
Waning Gibbous, 96% of the Moon is Illuminated
Feb 27
Waning Gibbous
Mar 4
Last Quarter
Mar 11
New
Mar 19
First Quarter
Mar 27
Full

Hourly Weather History & Observations

Time (CST) Temp. Windchill Dew Point Humidity Pressure Visibility Wind Dir Wind Speed Gust Speed Precip Events Conditions
12:54 AM 27.0 °F 16.1 °F 24.1 °F 89% 29.98 in 4.0 mi NNW 12.7 mph - N/A   Overcast
1:54 AM 26.1 °F 14.0 °F 21.9 °F 84% 29.98 in 4.0 mi NNW 15.0 mph - N/A   Overcast
2:03 AM 26.6 °F 14.3 °F 21.2 °F 80% 29.93 in 4.0 mi NNW 16.1 mph - N/A   Overcast
2:54 AM 25.0 °F 11.7 °F 23.0 °F 92% 29.97 in 3.0 mi NNW 17.3 mph 23.0 mph N/A   Overcast
3:54 AM 25.0 °F 11.3 °F 21.9 °F 88% 29.97 in 4.0 mi NNW 18.4 mph - N/A   Overcast
4:54 AM 25.0 °F 12.6 °F 21.9 °F 88% 29.98 in 4.0 mi NNW 15.0 mph 23.0 mph N/A   Overcast
5:54 AM 25.0 °F 12.2 °F 21.9 °F 88% 29.99 in 4.0 mi NNW 16.1 mph - N/A   Overcast
6:17 AM 24.8 °F 13.4 °F 21.2 °F 86% 29.95 in 5.0 mi NNW 12.7 mph 20.7 mph N/A   Overcast
6:29 AM 24.8 °F 14.0 °F 21.2 °F 86% 29.95 in 5.0 mi NW 11.5 mph - N/A   Overcast
6:43 AM 24.8 °F 13.4 °F 21.2 °F 86% 29.96 in 5.0 mi NW 12.7 mph - N/A   Overcast
6:54 AM 25.0 °F 13.1 °F 21.9 °F 88% 30.01 in 5.0 mi NNW 13.8 mph - N/A   Overcast
7:54 AM 25.0 °F 13.6 °F 21.0 °F 85% 30.03 in 4.0 mi NNW 12.7 mph - N/A   Overcast
8:21 AM 24.8 °F 12.9 °F 19.4 °F 80% 30.00 in 5.0 mi NNW 13.8 mph - N/A   Haze
8:54 AM 26.6 °F 16.2 °F 19.4 °F 74% 30.00 in 6.0 mi NW 11.5 mph - N/A   Haze
9:54 AM 30.9 °F 19.8 °F 21.9 °F 69% 30.05 in 8.0 mi NNW 16.1 mph - N/A   Scattered Clouds
10:54 AM 35.1 °F 24.1 °F 23.0 °F 61% 30.04 in 9.0 mi NNW 19.6 mph 27.6 mph N/A   Clear
11:54 AM 37.9 °F 27.1 °F 24.1 °F 57% 30.05 in 9.0 mi NNW 23.0 mph 28.8 mph N/A   Clear
12:54 PM 39.0 °F 27.8 °F 24.1 °F 55% 30.06 in 10.0 mi NNW 26.5 mph 32.2 mph N/A   Clear
1:54 PM 39.9 °F 28.8 °F 24.1 °F 53% 30.05 in 10.0 mi NNW 27.6 mph 35.7 mph N/A   Clear
2:54 PM 42.1 °F 32.3 °F 24.1 °F 49% 30.06 in 10.0 mi NNW 24.2 mph 33.4 mph N/A   Clear
3:54 PM 39.9 °F 29.7 °F 25.0 °F 55% 30.08 in 10.0 mi NNW 23.0 mph 29.9 mph N/A   Clear
4:54 PM 37.9 °F 27.3 °F 24.1 °F 57% 30.09 in 10.0 mi NW 21.9 mph 28.8 mph N/A   Clear
5:54 PM 36.0 °F 25.6 °F 26.1 °F 67% 30.11 in 10.0 mi NW 18.4 mph 26.5 mph N/A   Clear
6:54 PM 34.0 °F 23.4 °F 26.1 °F 73% 30.12 in 8.0 mi NW 17.3 mph 26.5 mph N/A   Clear
7:54 PM 33.1 °F 22.6 °F 26.1 °F 75% 30.13 in 8.0 mi NW 16.1 mph - N/A   Clear
8:54 PM 32.0 °F 20.8 °F 25.0 °F 75% 30.14 in 8.0 mi NNW 17.3 mph - N/A   Clear
9:25 PM 32.0 °F 20.8 °F 24.8 °F 75% 30.10 in 7.0 mi NNW 17.3 mph 23.0 mph N/A   Mostly Cloudy
9:54 PM 33.1 °F 21.5 °F 25.0 °F 72% 30.14 in 8.0 mi NNW 19.6 mph 27.6 mph N/A   Mostly Cloudy
10:17 PM 33.8 °F 23.5 °F 24.8 °F 70% 30.11 in 8.0 mi NNW 16.1 mph 26.5 mph N/A   Scattered Clouds
10:29 PM 33.8 °F 24.8 °F 24.8 °F 70% 30.11 in 8.0 mi NNW 12.7 mph - N/A   Mostly Cloudy
10:54 PM 33.1 °F 23.0 °F 26.1 °F 75% 30.15 in 8.0 mi NNW 15.0 mph - N/A   Overcast
11:54 PM 32.0 °F 20.8 °F 25.0 °F 75% 30.15 in 7.0 mi NNW 17.3 mph 23.0 mph N/A   Overcast